EW6131 Shirley NY US current weather conditions

sailwx.info

Wind from 295 at 6 knots gusting 19

Air temperature 4.4° C
Dewpoint -3.6° C

Last reported at 2019-Dec-05 20:59 UTC.
Time now 2019-Dec-05 22:06 UTC

Location: N 40°46' W 072°51'.
View on Google Maps.

See reports from other nearby stations

  
Tides and Currents Weather Stations Pressure Air Temp Water Temp Dewpoint Dewpoint Depression Visibility Wind Speed Wind Dir Waves Ship Positions
date/time (UTC)wind fromknots sea level pressurealtimeterstation pressurevisibilityair tempwater tempwave heightnotes
2019-Dec-05 20:59 295 6 gusting 19 4.4
2019-Dec-05 20:54 263 6 gusting 19 4.4
2019-Dec-05 20:49 276 6 gusting 15 5.0
2019-Dec-05 20:44 271 6 gusting 15 5.0
2019-Dec-05 20:39 265 6 gusting 13 5.0
2019-Dec-05 20:34 286 6 gusting 16 5.0
2019-Dec-05 20:29 261 6 gusting 18 5.0
2019-Dec-05 20:24 269 5 gusting 18 5.0
2019-Dec-05 20:18 280 6 gusting 16 5.0
2019-Dec-05 20:13 292 5 gusting 16 5.0
2019-Dec-05 20:08 325 5 gusting 13 5.0
2019-Dec-05 20:03 321 6 gusting 16 5.6
2019-Dec-05 19:58 327 7 gusting 16 5.6
2019-Dec-05 19:52 321 7 gusting 15 5.6
2019-Dec-05 19:47 259 6 gusting 16 5.6
2019-Dec-05 19:42 340 6 gusting 16 5.6
2019-Dec-05 19:37 317 6 gusting 15 5.6
2019-Dec-05 19:31 282 7 gusting 16 5.6
2019-Dec-05 19:26 282 7 gusting 18 5.6
2019-Dec-05 19:21 264 7 gusting 18 6.1
2019-Dec-05 19:16 271 6 gusting 17 6.1
2019-Dec-05 19:11 336 6 gusting 17 6.1
2019-Dec-05 19:06 301 6 gusting 21 6.1
2019-Dec-05 19:01 304 6 gusting 21 6.1
2019-Dec-05 18:56 219 5 gusting 17 6.1
2019-Dec-05 18:51 281 6 gusting 13 6.1
2019-Dec-05 18:45 340 6 gusting 17 6.1
2019-Dec-05 18:40 316 6 gusting 17 5.6
2019-Dec-05 18:35 297 6 gusting 17 5.6
2019-Dec-05 18:29 252 6 gusting 17 5.6
2019-Dec-05 18:24 282 7 gusting 19 5.6
2019-Dec-05 18:19 272 7 gusting 19 5.6
2019-Dec-05 18:14 296 7 gusting 17 5.6
2019-Dec-05 18:09 345 7 gusting 16 6.1
2019-Dec-05 18:03 246 6 gusting 16 5.6
2019-Dec-05 17:58 267 6 gusting 19 5.6
2019-Dec-05 17:53 275 7 gusting 19 6.1
2019-Dec-05 17:48 284 7 gusting 19 6.1
2019-Dec-05 17:42 273 6 gusting 19 6.1
2019-Dec-05 17:37 282 6 gusting 18 6.1
2019-Dec-05 17:32 030 6 gusting 17 6.1
2019-Dec-05 17:26 292 6 gusting 17 6.7
2019-Dec-05 17:21 298 6 gusting 15 6.7
2019-Dec-05 17:16 304 5 gusting 15 6.7
2019-Dec-05 17:11 339 6 gusting 15 6.7
2019-Dec-05 17:06 291 8 gusting 21 6.7
2019-Dec-05 17:01 299 7 gusting 21 7.2
2019-Dec-05 16:56 257 6 gusting 16 7.2
2019-Dec-05 16:51 288 6 gusting 13 7.2
2019-Dec-05 16:45 271 5 gusting 16 7.2
2019-Dec-05 16:40 298 6 gusting 16 6.7
2019-Dec-05 16:35 281 6 gusting 16 6.7
2019-Dec-05 16:30 273 8 gusting 19 6.1
2019-Dec-05 16:25 252 8 gusting 19 6.1
2019-Dec-05 16:20 298 7 gusting 16 6.7
2019-Dec-05 16:15 271 6 gusting 16 6.7
2019-Dec-05 16:10 302 6 gusting 15 6.7
2019-Dec-05 16:04 302 6 gusting 15 6.7
2019-Dec-05 15:59 294 6 gusting 14 6.7
2019-Dec-05 15:54 261 6 gusting 14 6.7
2019-Dec-05 15:49 288 5 gusting 13 6.7
2019-Dec-05 15:44 290 6 gusting 15 6.7
2019-Dec-05 15:39 336 6 gusting 18 6.7
2019-Dec-05 15:34 275 6 gusting 18 6.7
2019-Dec-05 15:28 257 6 gusting 16 6.7
2019-Dec-05 15:23 287 5 gusting 13 6.1
2019-Dec-05 15:17 286 6 gusting 17 6.1
2019-Dec-05 15:12 292 6 gusting 18 6.1
2019-Dec-05 15:07 250 6 gusting 12 6.1
2019-Dec-05 15:01 255 6 gusting 12 6.1
2019-Dec-05 14:56 273 6 gusting 13 5.6
2019-Dec-05 14:51 286 5 gusting 13 5.6
2019-Dec-05 14:45 317 4 gusting 12 5.6
2019-Dec-05 14:40 281 4 gusting 12 5.6
2019-Dec-05 14:35 319 4 gusting 11 5.6
2019-Dec-05 14:30 260 4 gusting 11 5.0
2019-Dec-05 14:25 325 5 gusting 11 5.0
2019-Dec-05 14:20 315 3 gusting 11 4.4
2019-Dec-05 14:15 276 2 gusting 8 4.4
2019-Dec-05 14:10 279 3 gusting 8 4.4
2019-Dec-05 14:05 284 3 gusting 8 4.4
2019-Dec-05 13:59 265 4 gusting 9 4.4
2019-Dec-05 13:54 306 4 gusting 9 4.4
2019-Dec-05 13:49 271 3 gusting 9 3.9
2019-Dec-05 13:43 333 4 gusting 9 3.9
2019-Dec-05 13:38 325 3 gusting 9 3.3
2019-Dec-05 13:32 284 3 gusting 9 3.3
2019-Dec-05 13:27 271 3 gusting 7 2.8
2019-Dec-05 13:22 286 3 gusting 7 2.8
2019-Dec-05 13:17 263 2 gusting 7 2.8
2019-Dec-05 13:12 323 1 gusting 5 2.2
2019-Dec-05 13:07 279 2 gusting 5 2.2
2019-Dec-05 13:02 279 1 gusting 6 2.2
2019-Dec-05 12:56 265 1 gusting 6 2.2
2019-Dec-05 12:51 276 1 gusting 6 2.2
2019-Dec-05 12:46 305 0 gusting 4 2.2
2019-Dec-05 12:40 305 1 gusting 4 2.2
2019-Dec-05 12:35 275 0 gusting 4 1.7
2019-Dec-05 12:30 281 1 gusting 4 1.7
2019-Dec-05 12:25 281 0 gusting 4 1.7
2019-Dec-05 12:20 281 0 gusting 5 1.7
2019-Dec-05 12:14 290 0 gusting 5 1.7
2019-Dec-05 12:09 294 0 gusting 5 1.7
2019-Dec-05 12:04 294 1 gusting 6 1.7
2019-Dec-05 11:59 317 1 gusting 6 1.7
2019-Dec-05 11:54 292 1 gusting 6 1.7
2019-Dec-05 11:49 289 1 gusting 6 1.7
2019-Dec-05 11:44 286 2 gusting 6 1.7
2019-Dec-05 11:38 277 2 gusting 6 1.7
2019-Dec-05 11:33 299 1 gusting 6 1.1
2019-Dec-05 11:28 304 1 gusting 6 1.1
2019-Dec-05 11:22 296 1 gusting 6 1.1
2019-Dec-05 11:17 302 1 gusting 5 1.1
2019-Dec-05 11:11 296 1 gusting 5 1.1
2019-Dec-05 11:06 329 1 gusting 5 1.1
2019-Dec-05 11:01 269 1 gusting 4 1.1
2019-Dec-05 10:56 269 1 gusting 5 1.1
2019-Dec-05 10:51 267 2 gusting 5 1.1
2019-Dec-05 10:46 279 2 gusting 6 1.1
2019-Dec-05 10:40 281 2 gusting 6 1.1
2019-Dec-05 10:35 266 1 gusting 5 1.1
2019-Dec-05 10:29 265 1 gusting 5 1.1
2019-Dec-05 10:24 274 2 gusting 4 1.1
2019-Dec-05 10:19 275 2 gusting 5 1.7
2019-Dec-05 10:14 275 2 gusting 5 1.7
2019-Dec-05 10:09 274 1 gusting 5 1.7
2019-Dec-05 10:04 274 1 gusting 5 1.7
2019-Dec-05 09:59 258 1 gusting 4 1.7
2019-Dec-05 09:54 258 1 gusting 4 1.7
2019-Dec-05 09:49 259 1 gusting 5 1.7
2019-Dec-05 09:38 271 0 gusting 3 1.7
2019-Dec-05 09:33 271 0 gusting 4 1.7
2019-Dec-05 09:28 271 0 gusting 4 1.7
2019-Dec-05 09:22 271 1 gusting 4 1.7
2019-Dec-05 09:17 271 1 gusting 4 1.7
2019-Dec-05 09:12 271 1 gusting 3 1.7
2019-Dec-05 09:06 271 0 gusting 3 1.7
2019-Dec-05 09:01 271 1.7
2019-Dec-05 08:55 271 1.7
2019-Dec-05 08:50 271 0 gusting 2 1.7
2019-Dec-05 08:45 271 0 gusting 3 1.7
2019-Dec-05 08:39 271 0 gusting 3 1.7
2019-Dec-05 08:34 271 1 gusting 3 1.7
2019-Dec-05 08:29 271 1 gusting 4 1.7
2019-Dec-05 08:24 271 1 gusting 4 2.2
2019-Dec-05 08:19 273 1 gusting 3 2.2
2019-Dec-05 08:14 273 1 gusting 5 2.2
2019-Dec-05 08:09 273 0 gusting 5 2.2
2019-Dec-05 08:03 270 0 gusting 4 2.2
2019-Dec-05 07:58 270 2.2
2019-Dec-05 07:53 270 2.2
2019-Dec-05 07:47 270 2.2
2019-Dec-05 07:42 270 0 gusting 3 2.2
2019-Dec-05 07:37 270 0 gusting 3 2.2
2019-Dec-05 07:32 270 2.2
2019-Dec-05 07:27 270 0 gusting 3 2.2
2019-Dec-05 07:21 270 0 gusting 3 2.2
2019-Dec-05 07:16 270 0 gusting 3 2.8
2019-Dec-05 07:11 270 0 gusting 3 2.8
2019-Dec-05 07:06 270 0 gusting 3 2.8
2019-Dec-05 07:01 270 0 gusting 3 2.8
2019-Dec-05 06:56 270 0 gusting 3 2.8
2019-Dec-05 06:50 270 0 gusting 3 2.8
2019-Dec-05 06:45 270 0 gusting 3 2.8
2019-Dec-05 06:40 270 0 gusting 3 2.8
2019-Dec-05 06:34 270 0 gusting 3 2.8
2019-Dec-05 06:29 270 0 gusting 3 2.8
2019-Dec-05 06:23 270 0 gusting 4 2.8
2019-Dec-05 06:18 270 0 gusting 4 2.8
2019-Dec-05 06:12 270 0 gusting 4 2.8
2019-Dec-05 06:07 270 0 gusting 4 2.8
2019-Dec-05 06:02 270 0 gusting 3 2.8
2019-Dec-05 05:57 270 0 gusting 4 2.8
2019-Dec-05 05:52 270 0 gusting 4 2.8
2019-Dec-05 05:47 270 0 gusting 3 2.8
2019-Dec-05 05:42 270 0 gusting 3 2.8
2019-Dec-05 05:36 270 0 gusting 3 3.3
2019-Dec-05 05:31 270 0 gusting 3 2.8
2019-Dec-05 05:26 270 0 gusting 3 2.8
2019-Dec-05 05:20 270 0 gusting 3 2.8
2019-Dec-05 05:15 270 0 gusting 3 2.8
2019-Dec-05 05:10 270 0 gusting 6 2.8
2019-Dec-05 05:05 270 1 gusting 6 2.8
2019-Dec-05 05:00 255 0 gusting 4 2.8
2019-Dec-05 04:55 255 0 gusting 4 2.8
2019-Dec-05 04:49 256 2.8
2019-Dec-05 04:44 256 2.8
2019-Dec-05 04:38 256 2.8
2019-Dec-05 04:33 256 2.8
2019-Dec-05 04:28 256 2.8
2019-Dec-05 04:23 256 2.8
2019-Dec-05 04:18 256 2.8
2019-Dec-05 04:13 256 2.8
2019-Dec-05 04:08 256 2.8
2019-Dec-05 04:03 256 2.8
2019-Dec-05 03:57 256 2.8
2019-Dec-05 03:52 256 2.8
2019-Dec-05 03:47 256 0 gusting 2 2.8
2019-Dec-05 03:42 256 0 gusting 2 2.8
2019-Dec-05 03:37 256 0 gusting 6 2.8
2019-Dec-05 03:32 256 0 gusting 6 2.8
2019-Dec-05 03:27 281 0 gusting 3 2.8
2019-Dec-05 03:21 281 0 gusting 3 2.8
2019-Dec-05 03:16 281 0 gusting 3 2.8
2019-Dec-05 03:11 281 0 gusting 3 2.8
2019-Dec-05 03:05 281 0 gusting 3 2.8
2019-Dec-05 03:00 281 1 gusting 3 2.8
2019-Dec-05 02:55 281 0 gusting 3 2.8
2019-Dec-05 02:50 281 2.8
2019-Dec-05 02:45 281 2.8
2019-Dec-05 02:40 281 2.8
2019-Dec-05 02:34 281 2.8
2019-Dec-05 02:29 281 2.8
2019-Dec-05 02:24 281 2.8
2019-Dec-05 02:19 281 2.8
2019-Dec-05 02:14 281 0 gusting 3 2.8
2019-Dec-05 02:08 281 0 gusting 3 2.8
2019-Dec-05 02:03 281 0 gusting 6 2.8
2019-Dec-05 01:58 281 1 gusting 6 2.8
2019-Dec-05 01:53 273 0 gusting 5 2.8
2019-Dec-05 01:48 274 0 gusting 6 2.8
2019-Dec-05 01:42 274 0 gusting 6 2.8
2019-Dec-05 01:37 276 0 gusting 5 2.8
2019-Dec-05 01:32 277 0 gusting 5 2.8
2019-Dec-05 01:27 265 2.2
2019-Dec-05 01:22 260 2.2
2019-Dec-05 01:17 260 0 gusting 4 2.2
2019-Dec-05 01:12 260 1 gusting 4 2.2
2019-Dec-05 01:07 257 1 gusting 5 2.2
2019-Dec-05 01:01 266 1 gusting 5 2.2
2019-Dec-05 00:56 265 1.7
2019-Dec-05 00:51 272 1.7
2019-Dec-05 00:45 272 1.7
2019-Dec-05 00:40 272 1.7
2019-Dec-05 00:34 272 1.7
2019-Dec-05 00:29 272 2.2
2019-Dec-05 00:24 272 2.2
2019-Dec-05 00:19 272 2.2
2019-Dec-05 00:14 272 2.2
2019-Dec-05 00:09 272 2.2
2019-Dec-05 00:03 272 2.2
2019-Dec-04 23:58 272 2.8
2019-Dec-04 23:53 272 2.8
2019-Dec-04 23:47 272 2.8
2019-Dec-04 23:42 272 2.8
2019-Dec-04 23:37 272 2.8
2019-Dec-04 23:31 272 3.3
2019-Dec-04 23:26 272 3.3
2019-Dec-04 23:21 272 3.3
2019-Dec-04 23:16 272 3.3
2019-Dec-04 23:11 272 3.3
2019-Dec-04 23:06 272 3.3
2019-Dec-04 23:01 272 3.3
2019-Dec-04 22:56 272 3.3
2019-Dec-04 22:50 272 3.3
2019-Dec-04 22:45 272 0 gusting 3 3.3
2019-Dec-04 22:40 272 0 gusting 3 3.3
2019-Dec-04 22:34 272 0 gusting 3 3.3
2019-Dec-04 22:29 272 0 gusting 5 3.9
2019-Dec-04 22:24 272 0 gusting 5 3.9
2019-Dec-04 22:18 275 0 gusting 4 3.9
2019-Dec-04 22:13 275 0 gusting 4 3.9
2019-Dec-04 22:08 277 0 gusting 3 3.9
2019-Dec-04 22:02 277 3.9
2019-Dec-04 21:57 277 3.9
2019-Dec-04 21:52 277 3.9
2019-Dec-04 21:47 277 3.9
2019-Dec-04 21:42 277 3.9
2019-Dec-04 21:36 277 0 gusting 2 3.9
2019-Dec-04 21:31 277 0 gusting 2 3.9
2019-Dec-04 21:26 277 0 gusting 2 3.9
2019-Dec-04 21:21 277 0 gusting 6 3.9
2019-Dec-04 21:16 277 1 gusting 6 3.9
2019-Dec-04 21:11 281 1 gusting 4 3.9
2019-Dec-04 21:06 286 1 gusting 4 3.9
2019-Dec-04 21:00 286 1 gusting 5 3.9
2019-Dec-04 20:55 286 0 gusting 5 3.9
2019-Dec-04 20:50 288 0 gusting 4 3.9
2019-Dec-04 20:45 288 0 gusting 4 3.9
2019-Dec-04 20:40 288 3.9
2019-Dec-04 20:34 288 3.9
2019-Dec-04 20:29 288 0 gusting 3 3.9
2019-Dec-04 20:23 288 0 gusting 4 3.9
2019-Dec-04 20:18 288 1 gusting 5 3.9
2019-Dec-04 20:13 288 1 gusting 5 3.9
2019-Dec-04 20:07 288 2 gusting 6 3.9
2019-Dec-04 20:02 267 2 gusting 6 3.9
2019-Dec-04 19:57 292 2 gusting 6 3.9
2019-Dec-04 19:52 270 2 gusting 6 3.9
2019-Dec-04 19:47 284 2 gusting 6 3.9
2019-Dec-04 19:42 274 2 gusting 6 3.9
2019-Dec-04 19:36 279 2 gusting 7 3.9
2019-Dec-04 19:30 248 1 gusting 7 3.9
2019-Dec-04 19:25 274 1 gusting 5 3.9
2019-Dec-04 19:20 265 0 gusting 3 4.4
2019-Dec-04 19:15 262 0 gusting 4 4.4
2019-Dec-04 19:10 262 1 gusting 4 4.4
2019-Dec-04 19:05 261 1 gusting 5 4.4
2019-Dec-04 18:59 261 0 gusting 5 4.4
2019-Dec-04 18:54 262 0 gusting 4 4.4
2019-Dec-04 18:49 262 1 gusting 6 4.4
2019-Dec-04 18:44 262 1 gusting 6 4.4
2019-Dec-04 18:39 263 1 gusting 3 4.4
2019-Dec-04 18:33 263 1 gusting 4 4.4
2019-Dec-04 18:28 263 0 gusting 4 5.0
2019-Dec-04 18:23 265 1 gusting 7 5.0
2019-Dec-04 18:17 265 2 gusting 7 5.0
2019-Dec-04 18:12 263 1 gusting 5 5.0
2019-Dec-04 18:07 281 1 gusting 4 4.4
2019-Dec-04 18:02 282 1 gusting 6 4.4
2019-Dec-04 17:57 282 1 gusting 6 4.4
2019-Dec-04 17:51 290 1 gusting 5 4.4
2019-Dec-04 17:46 275 2 gusting 5 4.4
2019-Dec-04 17:41 275 2 gusting 5 4.4
2019-Dec-04 17:36 254 2 gusting 8 4.4
2019-Dec-04 17:31 341 2 gusting 8 4.4
2019-Dec-04 17:26 277 2 gusting 6 4.4
2019-Dec-04 17:21 277 3 gusting 6 4.4
2019-Dec-04 17:16 234 2 gusting 6 4.4
2019-Dec-04 17:10 274 2 gusting 7 4.4
2019-Dec-04 17:06 276 3 gusting 7 4.4
2019-Dec-04 17:00 258 3 gusting 9 4.4
2019-Dec-04 16:55 273 3 gusting 9 4.4
2019-Dec-04 16:50 298 2 gusting 7 4.4
2019-Dec-04 16:40 314 1 gusting 6 4.4
2019-Dec-04 16:35 322 3 gusting 6 4.4
2019-Dec-04 16:29 274 3 gusting 6 4.4
2019-Dec-04 16:24 282 2 gusting 6 4.4
2019-Dec-04 16:18 279 1 gusting 5 4.4
2019-Dec-04 16:13 335 0 gusting 5 4.4
2019-Dec-04 16:08 302 1 gusting 5 3.9
2019-Dec-04 16:03 302 1 gusting 6 3.9
2019-Dec-04 15:58 271 1 gusting 6 3.9
2019-Dec-04 15:53 271 2 gusting 6 3.9
2019-Dec-04 15:48 271 2 gusting 6 3.9
2019-Dec-04 15:42 271 1 gusting 6 3.9
2019-Dec-04 15:37 296 2 gusting 6 3.9
2019-Dec-04 15:32 286 2 gusting 6 3.3
2019-Dec-04 15:27 240 1 gusting 5 3.3
2019-Dec-04 15:22 279 1 gusting 6 3.3
2019-Dec-04 15:17 307 1 gusting 6 3.3
2019-Dec-04 15:11 287 2 gusting 5 3.3
2019-Dec-04 15:06 280 2 gusting 6 3.3
2019-Dec-04 15:01 284 1 gusting 6 3.3
2019-Dec-04 14:56 312 1 gusting 6 3.3
2019-Dec-04 14:51 322 2 gusting 6 3.3
2019-Dec-04 14:46 268 2 gusting 6 2.8
2019-Dec-04 14:41 286 1 gusting 5 2.8
2019-Dec-04 14:35 291 0 gusting 6 2.8
2019-Dec-04 14:30 293 1 gusting 6 2.8
2019-Dec-04 14:25 284 2 gusting 5 2.8
2019-Dec-04 14:20 280 1 gusting 6 2.8
2019-Dec-04 14:14 277 1 gusting 4 2.8
2019-Dec-04 14:09 277 1 gusting 6 2.8
2019-Dec-04 14:03 278 1 gusting 5 2.8
2019-Dec-04 13:58 279 1 gusting 5 2.8
2019-Dec-04 13:53 272 0 gusting 5 2.2
2019-Dec-04 13:48 273 0 gusting 5 2.2
2019-Dec-04 13:43 274 0 gusting 5 2.2
2019-Dec-04 13:37 261 2.2
2019-Dec-04 13:32 261 0 gusting 3 2.2
2019-Dec-04 13:27 262 0 gusting 5 1.7
2019-Dec-04 13:22 262 0 gusting 5 1.7
2019-Dec-04 13:17 263 1.7
2019-Dec-04 13:11 263 1.7
2019-Dec-04 13:06 263 1.7
2019-Dec-04 13:01 265 1.1
2019-Dec-04 12:56 265 1.1
2019-Dec-04 12:51 265 1.1
2019-Dec-04 12:45 265 1.1
2019-Dec-04 12:40 265 0 gusting 4 1.1
2019-Dec-04 12:35 265 0 gusting 4 1.1
2019-Dec-04 12:30 265 0 gusting 4 1.1
2019-Dec-04 12:25 265 0 gusting 3 0.6
2019-Dec-04 12:20 265 0 gusting 2 0.6
2019-Dec-04 12:15 266 0.6
2019-Dec-04 12:09 266 0.6
2019-Dec-04 12:04 266 0.6
2019-Dec-04 11:59 266 0.6
2019-Dec-04 11:54 266 0.6
2019-Dec-04 11:49 266 0.6
2019-Dec-04 11:44 266 0.6
2019-Dec-04 11:39 266 0.6
2019-Dec-04 11:34 266 -0.0
2019-Dec-04 11:29 266 -0.0
2019-Dec-04 11:23 266 -0.0
2019-Dec-04 11:18 266 -0.0
2019-Dec-04 11:13 266 -0.0
2019-Dec-04 11:08 266 -0.0
2019-Dec-04 11:02 266 -0.6
2019-Dec-04 10:57 266 -0.6
2019-Dec-04 10:52 266 -0.6
2019-Dec-04 10:46 266 -0.6
2019-Dec-04 10:41 266 -0.6
2019-Dec-04 10:36 266 -0.6
2019-Dec-04 10:31 266 -0.6
2019-Dec-04 10:26 266 -0.6
2019-Dec-04 10:20 266 -0.6
2019-Dec-04 10:15 266 -0.6
2019-Dec-04 10:10 266 -0.6
2019-Dec-04 10:05 266 -0.6
2019-Dec-04 10:00 266 -0.6
2019-Dec-04 09:54 266 -0.6
2019-Dec-04 09:49 266 -0.6
2019-Dec-04 09:44 266 -0.6
2019-Dec-04 09:39 266 -0.6
2019-Dec-04 09:34 266 -0.6
2019-Dec-04 09:29 266 -0.6
2019-Dec-04 09:24 266 -0.6
2019-Dec-04 09:19 266 -0.6
2019-Dec-04 09:14 266 -0.6
2019-Dec-04 09:08 266 -0.6
2019-Dec-04 09:03 266 -0.6
2019-Dec-04 08:58 266 -1.1
2019-Dec-04 08:53 266 -1.1
2019-Dec-04 08:47 266 -1.1
2019-Dec-04 08:42 266 -1.1
2019-Dec-04 08:37 266 -1.1
2019-Dec-04 08:32 266 -1.1
2019-Dec-04 08:26 266 -1.1
2019-Dec-04 08:21 266 -1.1
2019-Dec-04 08:16 266 -1.1
2019-Dec-04 08:10 266 -1.1
2019-Dec-04 08:05 266 -1.1
2019-Dec-04 08:00 266 -1.1
2019-Dec-04 07:55 266 -1.1
2019-Dec-04 07:49 266 -1.1
2019-Dec-04 07:44 266 -1.1
2019-Dec-04 07:39 266 -1.1
2019-Dec-04 07:34 266 -1.1
2019-Dec-04 07:29 266 -1.1
2019-Dec-04 07:24 266 -1.1
2019-Dec-04 07:19 266 -1.1
2019-Dec-04 07:14 266 0 gusting 2 -1.1
2019-Dec-04 07:09 266 0 gusting 2 -1.1
2019-Dec-04 07:03 266 0 gusting 3 -1.1
2019-Dec-04 06:58 266 0 gusting 4 -1.1
2019-Dec-04 06:53 265 0 gusting 4 -1.1
2019-Dec-04 06:47 266 0 gusting 3 -0.6
2019-Dec-04 06:42 266 0 gusting 5 -0.6
2019-Dec-04 06:37 265 1 gusting 6 -0.6
2019-Dec-04 06:32 254 2 gusting 6 -0.6
2019-Dec-04 06:27 266 1 gusting 5 -0.6
2019-Dec-04 06:22 266 1 gusting 4 -0.6
2019-Dec-04 06:17 267 1 gusting 5 -0.6
2019-Dec-04 06:11 267 2 gusting 6 -0.6
2019-Dec-04 06:06 282 2 gusting 6 -0.6
2019-Dec-04 06:01 278 2 gusting 5 -0.6
2019-Dec-04 05:56 273 1 gusting 6 -0.6
2019-Dec-04 05:51 261 1 gusting 6 -0.6
2019-Dec-04 05:45 261 2 gusting 6 -0.6
2019-Dec-04 05:40 282 2 gusting 6 -1.1
2019-Dec-04 05:35 272 2 gusting 6 -1.1
2019-Dec-04 05:30 277 1 gusting 4 -1.1
2019-Dec-04 05:24 277 0 gusting 3 -1.1
2019-Dec-04 05:19 277 -1.1
2019-Dec-04 05:14 277 -1.1
2019-Dec-04 05:09 277 -1.1
2019-Dec-04 05:04 277 -0.6
2019-Dec-04 04:58 277 -0.6
2019-Dec-04 04:53 277 -0.6
2019-Dec-04 04:48 277 0 gusting 4 -0.6
2019-Dec-04 04:43 277 0 gusting 4 -0.6
2019-Dec-04 04:37 278 1 gusting 5 -0.6
2019-Dec-04 04:32 277 1 gusting 5 -0.6
2019-Dec-04 04:27 282 1 gusting 4 -0.6
2019-Dec-04 04:21 288 1 gusting 4 -0.6
2019-Dec-04 04:16 288 1 gusting 4 -0.6
2019-Dec-04 04:10 290 1 gusting 4 -0.6
2019-Dec-04 04:05 304 1 gusting 4 -0.6
2019-Dec-04 04:00 304 1 gusting 7 -0.6
2019-Dec-04 03:55 286 1 gusting 7 -0.6
2019-Dec-04 03:50 275 1 gusting 5 -0.6
2019-Dec-04 03:44 275 1 gusting 5 -0.6
2019-Dec-04 03:39 275 1 gusting 6 -0.6
2019-Dec-04 03:34 266 1 gusting 6 -0.6
2019-Dec-04 03:28 265 1 gusting 4 -0.6
2019-Dec-04 03:23 265 1 gusting 5 -0.6
2019-Dec-04 03:18 265 0 gusting 5 -0.6
2019-Dec-04 03:13 265 -0.6
2019-Dec-04 03:08 265 0 gusting 2 -0.6
2019-Dec-04 03:03 265 1 gusting 5 -0.6
2019-Dec-04 02:57 266 1 gusting 5 -0.6
2019-Dec-04 02:52 300 1 gusting 3 -0.6
2019-Dec-04 02:47 300 0 gusting 3 -0.6
2019-Dec-04 02:42 300 -0.6
2019-Dec-04 02:36 300 -0.0
2019-Dec-04 02:31 300 -0.0
2019-Dec-04 02:26 300 -0.0
2019-Dec-04 02:21 300 -0.0
2019-Dec-04 02:15 300 -0.0
2019-Dec-04 02:10 300 -0.0
2019-Dec-04 02:05 300 0.6
2019-Dec-04 02:00 300 0 gusting 3 0.6
2019-Dec-04 01:55 300 0 gusting 3 0.6
2019-Dec-04 01:49 300 0.6
2019-Dec-04 01:44 300 0.6
2019-Dec-04 01:39 300 0.6
2019-Dec-04 01:34 300 0.6
2019-Dec-04 01:29 300 0.6
2019-Dec-04 01:24 300 0.6
2019-Dec-04 01:19 300 0 gusting 6 1.1
2019-Dec-04 01:14 300 1 gusting 6 1.1
2019-Dec-04 01:08 294 1 gusting 6 1.1
2019-Dec-04 01:03 310 1 gusting 6 1.1
2019-Dec-04 00:57 285 2 gusting 6 1.1
2019-Dec-04 00:52 306 2 gusting 10 1.1
2019-Dec-04 00:47 280 2 gusting 10 1.1
2019-Dec-04 00:42 327 3 gusting 10 1.1
2019-Dec-04 00:37 290 2 gusting 10 1.1
2019-Dec-04 00:32 265 2 gusting 7 1.1
2019-Dec-04 00:27 307 2 gusting 6 1.1
2019-Dec-04 00:22 269 3 gusting 6 1.1
2019-Dec-04 00:16 273 2 gusting 6 1.1
2019-Dec-04 00:11 278 1 gusting 6 1.1
2019-Dec-04 00:06 281 1 gusting 5 1.1
2019-Dec-04 00:00 284 1 gusting 5 1.1
2019-Dec-03 23:55 276 1 gusting 5 1.1
2019-Dec-03 23:50 275 0 gusting 5 1.7
2019-Dec-03 23:45 276 0 gusting 4 1.7
2019-Dec-03 23:40 277 0 gusting 4 1.7
2019-Dec-03 23:35 293 1 gusting 5 1.7
2019-Dec-03 23:29 293 1 gusting 6 1.7
2019-Dec-03 23:24 267 0 gusting 6 1.7
2019-Dec-03 23:19 283 1 gusting 3 1.7
2019-Dec-03 23:13 283 2 gusting 6 1.7
2019-Dec-03 23:08 283 1 gusting 6 1.7
2019-Dec-03 23:03 303 1 gusting 6 1.7
2019-Dec-03 22:58 299 2 gusting 6 1.7
2019-Dec-03 22:53 274 0 gusting 6 1.7
2019-Dec-03 22:48 298 0 gusting 4 2.2
2019-Dec-03 22:43 300 0 gusting 4 2.2
2019-Dec-03 22:38 304 0 gusting 5 2.2
2019-Dec-03 22:33 312 1 gusting 6 2.2
2019-Dec-03 22:28 323 2 gusting 7 2.2
2019-Dec-03 22:23 311 1 gusting 7 2.2
2019-Dec-03 22:18 280 0 gusting 6 2.2
2019-Dec-03 22:13 292 1 gusting 5 2.2
2019-Dec-03 22:07 287 1 gusting 5 2.2
2019-Dec-03 22:02 277 0 gusting 4 2.2